Theta_e
313 312 313 314 314 313 312 311 312 313 312 314 315 315 318 319 319 325 331 326 326 330 328 328 331 331 331 330 330 333 332 331 332 333 336 339 341 343 342 342 341 341 340 340 340 339 339 340 341 341 341 340 340 339 339 339 340 339 339 339 339 339 338 336 336 336 336 336 335 334 333 332 331 331 330 329 329 328 327 327 326 325 324 321 315 310 307
314 314 314 315 315 314 313 311 312 313 312 314 315 314 316 318 317 321 324 322 326 332 331 329 328 326 326 326 326 329 332 332 332 334 336 338 341 343 342 342 342 340 340 341 340 339 339 339 340 340 341 340 340 339 339 340 340 339 339 339 339 339 338 337 336 336 336 336 335 334 333 332 332 332 331 330 329 328 327 327 326 325 323 320 315 310 307
315 315 315 316 315 315 315 314 312 312 312 313 314 315 316 317 316 319 322 322 326 332 332 331 326 322 323 326 326 328 329 329 331 334 337 338 341 342 342 342 341 341 341 341 340 340 339 338 339 339 340 340 340 340 339 339 340 339 339 339 339 339 338 338 337 337 336 335 334 334 333 332 332 332 331 330 330 328 327 327 326 325 323 319 314 310 308
318 317 316 316 317 317 318 316 314 313 314 314 315 316 316 316 316 318 320 322 324 325 328 329 327 326 329 329 325 325 326 327 329 331 334 337 339 341 342 342 342 342 341 341 341 340 339 339 339 339 340 340 339 339 339 339 339 339 339 339 339 339 338 338 337 336 336 335 333 333 332 332 332 332 331 330 330 328 327 327 326 324 321 318 314 310 308
320 319 317 318 319 319 321 320 317 316 316 316 316 317 317 318 318 319 321 325 326 324 325 326 327 332 336 331 324 322 323 326 327 327 328 331 335 339 341 341 342 342 342 341 341 340 340 340 340 339 339 339 339 339 339 339 339 339 339 339 339 339 338 337 336 336 336 335 334 333 332 331 332 331 330 330 329 328 327 327 326 323 319 316 313 311 309
320 319 319 320 321 322 323 321 319 318 318 318 317 317 318 319 320 323 325 325 324 325 328 328 329 332 330 325 323 322 321 324 327 327 327 328 330 334 337 339 341 342 342 342 341 340 340 340 340 340 339 339 338 338 338 338 338 338 339 339 339 339 338 337 336 336 335 334 334 332 332 332 332 331 330 329 329 327 327 326 325 322 319 317 314 311 309
320 319 319 321 322 321 321 319 319 319 319 319 318 318 319 319 320 322 322 321 320 323 326 325 325 325 322 320 321 321 321 323 325 327 328 328 328 330 331 333 335 339 341 342 341 341 340 339 340 340 340 339 338 338 338 338 338 338 339 339 338 338 338 337 335 335 335 334 333 333 332 332 331 330 330 329 328 327 327 326 325 323 320 317 315 312 310
320 320 319 321 322 320 320 321 320 321 323 323 322 321 319 318 319 320 319 317 319 322 322 321 321 321 320 320 321 320 321 323 324 325 327 327 328 329 329 330 331 335 338 340 340 341 340 339 340 340 340 339 338 337 337 337 337 338 338 338 338 337 337 336 335 335 335 334 333 333 332 331 330 330 329 329 328 327 326 325 323 321 319 317 315 312 310
320 321 319 320 321 321 322 323 321 321 322 323 324 323 322 318 318 319 320 318 318 320 320 318 319 320 319 320 321 319 319 322 324 325 326 326 327 328 329 330 331 332 335 337 340 341 340 339 340 340 339 339 338 338 337 337 337 338 338 337 337 336 336 336 335 335 334 334 334 333 332 331 330 329 329 328 328 327 326 326 324 321 318 316 314 312 310
320 321 320 321 322 323 324 324 321 319 318 320 323 324 325 322 318 317 319 319 320 322 321 317 316 319 320 322 321 319 318 322 325 325 325 326 327 327 327 329 330 331 334 336 339 340 340 340 340 340 339 339 338 338 337 337 337 338 338 337 336 336 336 335 335 334 334 333 333 332 332 331 329 329 328 328 328 327 327 326 324 322 319 317 315 313 310
319 320 321 322 323 324 325 325 324 320 318 320 323 324 326 327 323 321 321 321 321 321 320 318 317 318 320 321 320 318 318 321 324 324 324 325 326 326 326 327 329 331 335 337 339 340 340 340 340 339 339 338 338 337 337 337 337 337 337 337 336 335 335 334 334 333 333 333 333 332 331 330 329 329 328 328 328 327 327 326 324 321 319 317 315 313 310
321 321 322 323 323 324 325 324 323 321 319 320 322 325 327 327 326 325 325 325 323 319 315 317 319 319 319 319 319 320 320 320 323 324 322 323 324 325 325 325 327 331 336 338 339 339 340 340 340 339 339 338 337 337 337 337 337 337 336 336 335 335 334 334 333 333 332 333 332 332 331 330 329 328 328 328 328 327 327 325 322 320 319 317 315 312 309
321 320 321 323 323 325 325 322 320 321 321 320 322 326 327 324 324 325 325 326 326 321 317 317 317 318 318 317 319 321 322 322 323 324 322 322 323 325 327 327 328 331 335 337 337 339 340 340 339 339 338 338 337 337 336 336 336 336 336 336 335 334 334 333 332 332 332 332 331 331 331 330 329 328 328 328 327 327 326 324 321 320 318 316 314 311 307
322 321 322 323 324 325 323 320 319 319 321 324 325 325 324 323 323 324 324 325 326 325 323 320 317 317 317 317 319 320 322 323 324 326 328 329 328 328 329 331 331 333 335 337 338 339 339 339 339 338 338 337 337 336 336 336 335 335 335 335 335 334 333 332 331 331 331 331 331 330 330 329 328 328 327 327 327 326 325 323 321 320 318 315 313 309 304
321 321 320 322 325 325 321 322 325 324 323 325 325 323 323 323 323 323 323 324 326 328 328 324 320 320 321 321 322 323 324 327 328 329 331 332 334 334 333 334 334 334 337 338 339 339 339 339 339 338 337 336 336 335 335 335 335 335 334 333 333 333 332 332 331 331 331 331 330 330 329 329 328 328 328 327 326 325 324 322 321 320 317 314 310 306 303
319 320 322 325 328 327 322 324 327 325 323 323 323 323 325 324 322 322 323 323 325 327 329 327 322 323 326 326 327 328 330 332 333 333 331 331 333 336 336 336 336 335 337 339 339 338 338 338 338 337 336 336 335 335 335 335 334 334 334 333 332 332 332 331 330 330 330 330 330 329 329 328 328 328 327 326 325 323 321 320 320 318 316 313 309 306 304
319 322 325 324 323 322 321 322 323 322 322 323 322 323 324 323 322 322 322 323 324 325 326 328 328 330 332 331 330 332 333 334 334 334 333 334 335 337 337 338 338 337 338 339 338 338 337 337 336 336 336 335 335 335 335 334 334 334 333 332 331 331 330 330 329 328 328 328 328 328 328 327 327 327 326 326 324 322 319 319 319 318 316 313 309 306 305
320 320 321 320 319 319 320 321 321 321 322 322 322 322 323 323 323 323 323 323 324 324 325 326 329 333 333 331 331 332 333 335 334 333 334 336 337 338 338 338 339 339 338 338 338 337 337 336 336 335 335 334 335 334 333 333 333 333 332 331 331 330 329 328 327 326 326 326 326 326 325 325 325 325 326 326 324 322 320 319 319 318 315 313 310 307 305
320 320 320 320 321 320 319 320 321 322 322 321 321 321 322 324 324 323 322 322 323 324 325 325 326 331 332 331 333 333 333 334 334 333 334 335 335 336 336 335 336 338 338 338 337 337 336 335 335 335 334 334 334 333 332 332 331 331 331 331 331 330 329 328 327 326 326 326 326 325 324 323 323 324 324 324 323 322 321 321 319 317 315 314 311 308 305
320 321 321 320 320 319 319 321 322 322 322 321 319 320 322 324 324 323 322 322 322 323 324 324 325 329 332 333 334 334 334 334 333 333 334 333 332 333 333 332 333 335 336 336 336 336 335 335 334 334 334 333 332 332 331 331 331 330 330 330 330 330 329 328 327 327 327 327 327 326 324 324 324 324 323 323 323 323 323 322 321 319 318 315 312 309 307
320 322 321 321 322 320 319 320 321 322 323 322 321 321 322 323 324 324 323 323 322 322 322 324 326 329 330 331 333 334 334 334 333 332 332 331 331 332 332 330 332 334 334 335 335 335 334 334 334 334 333 332 332 332 331 330 330 330 330 330 330 329 328 328 327 327 327 326 326 326 326 325 324 324 323 323 323 323 322 322 321 320 319 317 314 311 310
323 324 322 322 324 323 320 319 321 322 323 323 322 322 322 323 324 324 323 323 323 322 323 324 326 328 329 330 331 332 332 332 332 331 331 331 331 332 332 331 332 333 333 333 334 333 333 333 333 333 332 332 332 331 331 331 331 330 330 329 328 328 328 327 327 326 326 325 325 325 325 325 323 321 321 321 322 322 321 321 319 318 317 315 313 312 311
323 323 320 320 321 322 320 320 321 321 321 322 322 323 323 323 323 323 324 324 324 324 324 324 323 325 327 328 328 328 328 329 330 330 330 330 331 331 331 332 332 332 331 332 332 332 333 333 332 332 332 332 331 331 331 331 330 330 330 329 328 328 328 327 327 326 325 324 323 323 323 323 322 320 319 318 318 319 319 319 317 316 314 312 311 311 310
322 320 319 319 320 320 320 321 321 321 320 320 322 322 322 322 322 323 324 325 325 326 327 326 325 325 326 326 326 327 327 326 328 329 329 329 330 330 330 331 332 331 330 331 332 332 332 332 331 332 332 332 331 331 330 330 330 329 330 329 328 328 327 326 326 325 323 322 322 322 321 321 320 319 319 318 317 316 316 316 315 314 313 311 310 309 307
320 320 320 319 319 320 320 320 321 320 319 321 322 322 321 322 322 323 323 324 325 326 327 327 327 327 327 326 326 327 328 326 327 328 329 328 329 329 329 329 330 329 329 331 332 332 331 331 331 331 331 331 331 331 330 329 329 328 328 328 328 327 326 326 325 325 323 322 321 321 321 320 320 319 319 319 319 318 317 314 312 311 310 310 310 309 307
319 319 320 320 320 320 320 320 321 320 320 321 321 321 321 321 322 323 323 323 325 326 326 326 326 326 328 328 328 328 329 328 326 327 327 327 326 327 328 328 329 329 328 330 331 332 331 331 331 330 330 330 330 329 329 329 329 328 328 328 327 327 326 326 326 325 324 323 322 321 320 319 320 320 320 320 320 320 318 315 311 309 308 309 309 308 305
318 319 319 320 322 322 320 320 320 320 320 320 319 320 321 320 321 322 322 323 324 325 326 327 326 326 327 328 328 328 328 327 326 326 326 325 324 325 326 325 327 328 328 329 331 331 331 330 330 330 329 329 329 329 329 328 328 328 327 327 327 327 326 325 325 325 324 324 322 321 320 320 320 321 321 321 320 320 318 316 313 311 309 309 309 308 305
318 318 318 320 322 323 321 320 320 321 321 320 320 320 320 319 320 321 321 322 323 324 324 325 326 326 326 327 328 328 327 327 327 327 327 327 327 328 327 326 326 327 327 328 330 330 330 330 330 329 329 329 329 329 329 328 327 327 327 326 326 325 325 324 324 323 324 323 321 319 319 321 321 321 321 321 321 319 317 315 313 312 311 310 310 308 306
318 318 318 319 321 322 321 321 321 321 321 320 320 320 320 319 320 320 320 320 321 322 323 324 325 326 326 326 327 327 327 327 326 326 327 328 329 330 330 329 328 327 327 328 328 329 329 329 329 329 329 328 328 328 328 327 327 326 326 326 325 325 324 324 323 323 324 323 321 319 319 321 321 320 320 320 320 319 316 313 312 312 311 310 310 309 306
318 318 318 320 320 321 321 321 320 321 321 320 320 319 319 319 319 319 320 321 321 321 322 323 325 325 325 325 326 327 327 326 326 325 325 326 327 328 329 330 329 329 329 329 329 329 329 329 328 328 328 328 327 327 327 326 326 326 326 325 325 324 324 323 323 324 324 323 321 319 319 320 321 319 318 318 319 318 316 314 313 311 310 310 310 310 309
316 317 318 318 318 319 319 319 319 320 319 319 318 318 318 317 316 317 319 321 322 322 323 323 324 324 323 323 325 326 326 326 326 325 324 323 324 326 327 328 328 328 329 329 328 328 328 328 328 328 328 328 327 327 327 326 326 325 325 324 324 323 323 322 322 323 323 322 322 320 319 319 320 318 316 316 317 316 315 314 313 312 311 311 311 310 309
316 316 317 317 317 318 319 319 318 317 316 316 316 316 316 315 316 316 317 318 319 320 320 321 322 322 322 322 324 325 325 325 325 325 324 324 324 325 325 325 326 326 326 327 327 327 327 327 328 328 328 327 327 326 326 326 325 324 324 323 322 322 322 321 321 321 321 321 321 320 320 321 320 318 317 317 317 315 314 313 313 312 312 312 311 310 309
317 316 316 316 316 317 318 317 316 315 315 314 314 315 315 315 316 316 315 315 316 317 317 318 320 321 321 322 323 323 323 324 324 324 324 324 324 325 325 325 325 325 325 325 325 325 325 326 327 327 327 327 326 325 324 324 325 324 324 323 321 321 321 321 321 321 321 321 320 320 320 320 320 318 317 317 316 315 313 314 314 313 312 312 311 310 309
317 316 316 316 317 317 317 316 315 315 314 314 314 315 316 316 315 315 314 314 316 317 318 319 320 320 321 322 323 322 322 323 324 324 324 324 324 324 324 324 324 325 324 324 324 324 324 325 325 325 325 325 325 324 323 323 323 323 323 322 321 321 322 322 321 320 320 320 320 320 319 319 318 317 317 316 315 314 313 313 313 312 311 310 310 308 308
316 316 316 316 316 317 316 315 314 314 314 314 314 316 316 316 315 315 315 315 316 318 318 319 320 321 321 321 321 322 323 323 323 323 323 323 323 324 324 323 324 324 324 324 323 323 323 324 324 324 324 323 323 322 322 322 322 322 321 321 321 321 322 322 321 320 319 319 319 318 318 318 317 317 316 314 314 314 313 312 312 311 311 310 309 308 308
315 315 315 316 316 316 316 315 315 314 314 314 315 316 316 316 315 315 316 315 316 317 318 318 319 319 320 320 321 321 322 322 322 322 323 323 323 323 323 323 323 323 324 323 323 323 323 322 322 322 322 321 321 321 321 322 322 321 321 321 321 321 321 321 320 319 318 318 317 317 317 317 316 315 314 313 313 313 312 312 311 311 310 309 309 308 308
314 314 314 315 316 316 316 316 316 315 314 315 315 316 316 316 315 315 315 315 315 315 316 316 316 316 317 317 318 319 319 319 319 320 321 321 322 322 322 322 322 322 323 323 322 322 322 322 321 321 320 319 319 320 321 321 321 321 320 320 319 318 318 318 319 319 318 317 317 317 316 316 315 314 313 313 312 312 312 312 311 310 309 309 309 309 309
313 313 314 314 315 315 315 315 315 315 315 315 315 315 316 316 315 315 315 315 314 314 314 314 315 316 316 316 316 316 317 317 317 317 318 318 319 320 321 321 321 321 321 322 322 322 322 322 321 321 320 319 319 319 320 320 321 320 319 319 319 317 316 316 317 318 319 318 317 317 316 316 315 314 313 312 312 312 311 311 310 310 310 309 309 309 308
313 313 313 314 314 314 314 314 314 315 314 314 315 315 316 315 315 315 314 314 313 313 313 314 314 315 316 315 315 315 315 315 315 316 316 316 317 319 319 319 320 321 320 321 321 320 321 321 321 320 320 319 319 319 319 319 320 320 319 319 318 317 316 315 315 317 318 318 318 317 316 316 316 315 313 312 312 312 311 310 310 310 309 309 309 309 308
313 312 313 313 313 313 313 314 314 314 314 314 314 315 315 315 315 315 314 314 313 313 313 313 312 312 313 313 312 312 312 313 313 314 314 314 315 317 318 318 319 320 320 320 320 319 319 319 319 319 319 319 319 319 319 319 319 319 319 318 317 316 315 314 314 315 316 318 318 317 317 316 316 315 314 313 312 312 311 310 310 310 309 309 309 308 307
313 312 312 312 312 312 312 313 314 314 314 314 314 315 315 314 314 314 314 314 313 313 312 312 311 311 311 311 310 310 311 312 312 313 313 313 314 315 316 317 318 318 318 319 319 318 318 317 317 317 318 318 318 318 319 318 318 318 318 317 316 315 314 314 314 314 315 316 317 317 317 316 316 315 315 314 313 313 312 312 310 310 310 309 309 307 306
312 312 312 312 312 311 312 312 313 313 313 314 314 314 314 314 314 314 314 313 312 312 312 311 311 311 311 311 310 310 311 312 312 312 312 313 313 314 315 315 314 314 314 315 315 314 314 314 313 314 316 318 318 318 317 317 317 317 317 316 315 315 314 314 314 313 313 314 315 315 316 315 315 314 314 313 313 313 312 312 311 310 309 309 308 307 306
310 311 311 311 311 311 311 311 312 312 312 312 312 312 313 314 313 313 312 311 311 311 311 311 311 311 311 311 311 311 312 312 312 313 313 313 313 313 313 313 312 312 312 312 311 311 311 312 311 313 315 317 317 317 316 316 316 316 316 315 314 314 314 314 313 313 313 313 313 313 314 313 313 313 312 312 312 312 311 311 310 310 309 309 307 306 306
307 308 310 311 310 310 310 311 310 310 311 311 311 311 312 313 313 312 311 310 310 310 310 310 310 310 310 310 311 311 311 312 313 313 313 313 313 313 311 311 311 311 311 311 311 311 312 312 312 313 315 317 317 316 316 315 315 315 315 314 313 313 313 313 313 313 313 312 312 312 312 312 311 311 311 311 311 311 311 310 310 310 309 308 307 307 306
304 306 309 310 310 309 309 310 310 310 309 309 310 311 312 312 311 311 310 310 310 310 310 310 310 310 310 310 310 311 311 312 313 313 312 312 312 311 310 310 311 311 311 311 311 312 312 312 312 313 314 315 316 315 315 315 314 314 314 314 313 313 312 313 312 312 312 312 312 311 311 311 311 311 310 310 310 310 310 310 310 309 309 308 308 307 306
303 304 307 309 309 309 309 309 310 310 309 309 309 310 310 310 310 310 310 310 310 310 310 309 309 309 309 310 311 311 312 312 312 311 311 310 310 309 309 310 310 311 311 311 311 311 312 312 311 311 311 312 313 313 313 313 313 314 314 314 313 312 312 312 312 312 311 311 311 311 311 310 310 310 310 310 310 310 309 309 309 309 309 308 308 307 306
303 303 304 306 307 308 308 309 309 310 309 309 309 309 310 310 311 310 310 310 310 309 309 309 309 309 309 310 310 311 311 311 311 310 310 310 309 308 309 310 311 311 310 311 311 311 311 311 311 311 311 311 311 312 312 312 312 313 313 313 312 311 311 311 311 311 311 311 311 310 310 310 309 309 309 309 309 309 309 308 308 308 308 307 307 306 306
302 302 302 303 305 306 306 306 308 309 309 308 308 308 309 310 310 310 310 310 309 308 308 308 309 309 309 310 309 309 309 310 311 310 310 309 308 307 307 309 310 310 310 310 310 311 311 311 311 311 311 311 311 311 311 311 311 312 312 312 311 311 311 310 311 311 310 310 310 310 310 309 309 309 309 309 309 309 308 308 308 307 307 307 306 306 305
300 301 301 302 304 305 304 303 303 305 306 306 306 307 307 308 309 309 309 309 309 308 308 308 308 309 309 309 308 308 308 309 310 311 310 309 308 307 307 308 309 309 308 308 308 309 310 311 311 311 311 310 310 311 311 311 311 311 311 311 311 311 311 311 310 310 310 310 310 310 310 309 309 309 309 308 309 309 308 308 308 308 307 307 306 306 305
298 299 300 300 301 302 301 299 299 301 303 304 304 304 305 307 308 308 308 308 308 308 308 308 308 308 309 309 308 308 308 308 309 309 309 308 308 308 308 309 309 308 307 306 305 306 308 309 311 311 310 310 310 310 311 311 311 310 310 310 311 310 310 310 310 310 310 310 310 310 310 309 309 309 308 308 308 308 308 308 308 307 307 306 306 306 305
296 297 297 297 297 297 297 297 297 298 300 301 301 302 302 304 305 306 306 307 308 308 308 308 308 308 308 308 308 308 308 308 308 308 308 308 308 307 308 308 309 309 308 307 305 305 306 308 309 310 310 309 309 309 310 310 310 310 309 309 310 310 309 309 309 309 309 309 309 309 309 309 308 308 308 308 308 308 307 307 307 307 307 306 306 306 305
294 295 295 296 296 296 297 297 297 298 298 299 299 300 300 301 302 303 303 304 305 306 306 307 307 307 307 307 308 308 308 308 308 308 308 307 307 307 308 308 308 308 308 308 306 305 305 306 307 308 308 308 308 308 308 308 308 309 309 309 309 309 309 308 308 308 308 308 308 308 308 308 308 308 308 307 307 307 307 307 306 306 306 305 305 305 305
Wind_Speed
11 12 15 14 9 9 11 10 10 11 14 14 12 10 6 1 2 6 6 5 5 5 6 6 7 9 10 7 4 15 17 12 18 30 34 33 35 39 42 44 47 48 48 48 48 49 47 44 43 43 43 43 42 42 42 42 43 43 43 45 46 46 45 44 43 42 40 40 39 38 38 36 32 29 28 26 24 21 21 22 21 18 15 14 16 19 19
11 12 15 14 11 13 14 12 12 12 13 14 13 12 9 6 9 9 6 8 7 4 5 5 6 11 14 11 4 15 22 18 16 22 32 36 38 40 43 45 47 48 47 47 47 46 45 44 43 42 42 43 43 42 42 42 44 43 42 44 45 46 46 45 44 43 42 40 39 39 38 35 31 29 29 27 25 23 23 24 22 19 16 16 18 20 21
7 9 11 12 11 12 10 8 12 14 13 13 13 11 10 10 11 9 5 8 7 4 6 4 6 14 18 16 9 5 15 19 20 18 18 26 32 36 41 44 46 46 45 44 44 44 44 44 44 43 42 42 43 42 42 43 44 44 43 44 44 45 45 45 45 45 43 40 39 39 38 35 31 30 31 30 27 25 24 25 23 20 18 19 20 22 23
5 5 5 6 7 8 9 10 10 12 12 11 10 9 10 10 9 6 4 5 4 4 8 5 6 10 12 12 13 7 7 14 19 20 16 16 21 25 30 34 37 40 41 41 42 43 43 43 44 44 44 43 42 42 42 43 44 45 43 44 45 45 45 45 46 45 43 41 40 39 37 34 32 33 33 32 29 27 26 26 24 22 21 21 23 24 25
4 5 8 8 9 8 6 7 7 7 9 10 10 9 11 11 8 4 4 5 5 5 7 4 3 7 8 9 16 14 7 4 15 21 19 16 16 17 20 24 27 32 37 40 42 42 42 42 43 43 44 43 42 42 42 42 43 44 43 43 45 46 46 46 46 45 43 41 40 38 36 34 33 35 35 33 31 29 28 27 26 24 24 24 25 26 27
2 5 9 8 5 3 4 6 7 7 8 9 11 11 11 10 6 5 5 5 5 6 6 4 2 3 8 16 22 15 9 2 12 22 26 25 23 22 23 25 27 31 36 39 41 42 42 41 41 42 42 42 41 40 40 41 43 43 43 44 46 48 47 46 46 44 42 40 38 36 34 34 35 37 37 34 31 30 30 29 27 26 26 26 27 27 29
1 2 6 4 2 4 7 10 10 9 8 8 10 12 12 10 7 7 8 5 4 5 5 8 10 6 6 20 25 16 9 11 19 23 25 28 30 31 31 31 33 35 37 38 40 41 41 41 41 42 42 40 39 39 39 41 42 43 43 43 45 47 47 46 45 43 40 38 35 33 34 36 36 37 36 34 33 33 31 29 28 27 27 27 28 29 30
1 2 2 2 4 7 11 11 8 6 6 8 9 9 11 11 8 8 10 8 7 7 4 9 15 17 14 15 21 22 19 15 20 24 22 23 26 29 32 33 35 37 37 38 39 41 41 42 42 42 42 41 39 38 38 39 41 43 44 44 45 46 45 45 44 42 40 37 34 33 35 38 38 38 37 36 35 35 32 29 29 28 28 28 29 30 31
2 1 1 3 5 7 8 5 3 2 3 7 9 8 9 11 9 9 8 8 10 9 6 7 11 17 16 10 14 24 23 15 19 24 21 22 24 25 28 31 33 35 37 38 40 41 42 43 43 42 42 41 39 37 38 39 41 43 44 44 46 47 46 45 44 42 40 38 35 34 37 39 40 39 38 37 37 35 32 30 30 29 29 29 29 30 31
2 2 2 3 3 4 5 6 5 5 8 10 10 7 6 9 10 10 9 9 10 9 7 10 11 8 6 5 10 17 15 9 15 20 18 20 23 23 25 29 32 35 38 41 42 43 43 43 43 43 42 41 39 38 38 40 42 44 45 44 45 46 46 46 44 42 40 37 34 35 38 40 40 40 39 38 36 33 31 30 31 30 29 29 29 30 31
2 2 2 2 2 4 7 8 6 8 15 16 9 4 4 6 8 8 5 5 9 9 8 10 11 7 4 4 8 9 7 7 12 16 17 20 22 23 24 26 31 35 40 43 44 43 44 44 43 43 42 40 38 38 38 40 42 44 45 46 46 46 46 45 43 40 39 37 35 35 37 40 41 41 40 38 35 32 31 32 32 30 27 27 28 30 32
3 3 3 3 3 4 7 7 5 8 15 13 4 1 4 6 13 16 10 4 4 9 16 15 8 5 7 9 10 7 7 11 15 14 16 20 23 25 24 24 30 36 41 44 44 44 45 46 45 44 41 39 38 37 38 41 44 43 43 44 44 44 43 42 40 39 38 37 35 35 36 40 42 41 40 38 36 34 33 33 32 28 25 26 27 29 31
4 3 3 3 3 5 6 7 8 9 10 6 1 4 5 10 19 25 20 12 8 3 14 16 11 14 20 22 19 11 8 14 16 14 17 22 23 23 23 26 33 39 41 42 43 44 46 46 46 44 41 39 39 37 37 42 45 45 44 43 42 42 41 40 39 38 36 35 34 33 34 38 41 42 41 39 37 35 34 34 31 27 25 25 25 25 27
3 3 3 3 4 4 5 5 5 5 3 1 4 5 11 14 17 26 31 24 16 8 5 12 17 24 27 25 20 14 13 17 16 11 13 20 24 25 27 31 36 38 39 40 42 44 45 45 44 42 40 39 39 37 36 39 42 42 43 44 43 42 40 37 36 35 33 32 32 30 32 36 40 41 39 37 35 35 36 34 30 26 25 24 23 24 25
2 2 2 2 3 4 5 2 5 5 3 3 6 8 13 18 18 24 31 31 27 21 11 6 13 20 20 17 16 15 15 17 15 12 14 21 26 29 31 34 37 38 38 40 42 43 43 42 42 40 39 39 39 37 37 37 37 38 38 40 40 39 36 34 34 34 33 32 31 30 32 36 37 38 38 37 38 38 37 34 30 27 25 25 25 25 26
1 1 3 4 4 3 3 5 3 3 7 5 10 11 11 16 22 23 25 29 31 31 28 18 14 18 17 15 16 14 12 13 13 11 12 17 24 28 31 34 36 37 39 41 41 41 41 40 40 39 38 37 36 37 38 38 37 38 38 37 37 36 34 34 35 35 34 32 31 30 32 35 36 38 39 40 40 40 37 33 29 27 27 27 26 26 26
4 2 2 4 5 12 11 6 6 4 8 6 12 13 15 13 20 21 19 23 26 30 33 25 9 19 19 15 16 14 9 9 11 9 8 13 20 24 29 33 36 38 40 41 41 39 37 36 37 36 34 33 34 34 35 35 37 40 40 37 36 36 37 37 38 37 35 32 31 30 32 35 37 39 40 40 40 38 35 31 29 28 28 27 26 25 26
7 3 9 12 11 17 20 12 3 3 6 9 11 13 16 14 17 17 15 17 23 26 27 25 12 11 19 14 12 11 8 7 10 9 8 13 16 17 23 30 34 37 39 40 39 38 35 34 35 33 30 31 33 33 33 33 36 39 39 37 36 38 39 40 40 39 36 34 33 33 34 36 36 37 37 37 37 35 33 30 29 29 28 27 26 26 27
5 3 10 14 8 11 15 14 13 7 9 11 12 14 17 15 15 16 17 17 19 20 21 24 24 7 10 11 9 9 8 7 9 9 11 16 17 17 20 23 26 32 37 37 36 36 34 34 35 33 31 30 30 30 32 33 33 35 36 38 40 41 41 41 42 40 36 34 34 35 36 36 36 35 34 34 34 33 32 30 30 30 29 27 27 28 27
3 3 5 13 14 10 8 8 12 7 7 10 11 11 14 14 17 18 19 18 17 17 16 18 22 16 10 5 4 7 7 6 7 9 12 15 17 20 22 19 18 23 30 32 32 33 34 35 35 34 32 30 28 27 30 31 32 35 37 40 42 42 42 42 42 40 36 34 33 33 34 35 34 34 34 34 32 31 29 28 28 28 28 28 28 27 26
3 3 6 11 13 9 6 11 12 8 7 7 7 9 10 15 20 19 18 17 18 17 11 9 13 19 21 16 8 2 3 5 7 9 13 17 20 22 23 21 20 21 23 27 30 32 33 33 34 34 33 31 30 30 30 31 33 36 38 39 40 41 42 41 41 38 36 33 32 31 32 32 33 33 33 31 29 27 26 26 26 24 24 25 24 23 23
2 3 4 5 4 3 9 15 12 9 7 5 4 9 13 16 18 18 16 14 14 14 12 11 14 18 19 19 14 8 3 4 7 11 16 18 20 22 21 21 22 22 20 22 25 29 30 30 31 32 31 30 31 32 32 32 32 33 37 40 40 40 40 39 37 35 33 34 33 33 33 34 34 34 33 30 28 26 25 25 25 24 22 21 19 19 20
5 7 7 6 6 7 14 18 12 6 6 7 7 11 15 14 13 15 16 16 16 17 18 21 22 20 18 16 14 11 7 5 9 15 17 16 18 22 20 21 23 22 19 20 23 27 29 28 28 28 27 27 28 30 31 32 31 30 34 37 38 38 37 34 31 30 31 34 35 35 35 35 35 35 34 32 30 28 26 25 23 23 22 20 17 17 18
8 10 10 9 10 12 14 17 13 5 6 6 7 10 12 10 10 13 14 17 19 20 21 23 22 20 19 16 13 10 7 4 8 13 14 12 15 17 15 19 23 22 21 25 28 29 30 30 29 29 27 26 26 27 28 30 31 31 32 34 35 35 33 28 26 26 28 32 35 36 36 36 35 35 35 34 32 30 27 25 23 22 22 20 18 17 17
6 7 7 9 15 18 15 12 9 2 3 5 6 6 8 7 8 12 13 14 16 17 19 19 18 17 17 16 12 8 6 8 11 12 12 11 11 11 11 16 21 21 23 28 30 30 31 31 30 29 28 27 26 26 26 27 30 31 31 32 33 32 30 28 27 26 27 30 34 36 36 36 35 34 33 32 30 27 26 25 23 22 22 19 18 17 17
6 5 5 9 14 15 10 7 7 5 4 1 3 5 6 4 5 10 11 12 13 12 14 15 15 15 15 15 12 9 9 13 15 14 14 13 11 8 8 10 13 18 24 30 31 30 30 30 28 26 26 26 26 25 25 26 27 27 27 28 29 29 28 28 29 28 28 29 32 34 36 36 34 31 29 28 26 26 28 28 26 25 24 22 20 18 18
7 4 6 9 9 7 6 3 4 4 4 5 1 4 4 3 5 7 9 10 11 10 11 12 12 13 13 13 13 11 10 13 16 17 16 14 11 6 4 4 8 16 24 28 30 30 28 27 26 24 23 24 25 24 25 26 27 27 28 30 30 29 28 28 29 30 30 31 32 33 34 33 30 27 25 24 24 27 29 29 29 29 28 25 22 21 20
7 6 7 7 9 10 8 5 7 7 1 3 1 3 3 4 5 7 8 9 9 9 9 9 10 11 11 11 13 14 13 13 16 18 17 16 13 9 7 8 13 20 22 24 26 26 25 24 23 21 19 21 22 23 24 25 24 25 28 30 29 27 25 24 24 24 25 28 31 32 31 29 28 27 25 24 24 27 30 29 28 28 26 23 22 22 21
7 7 7 7 9 12 9 7 9 9 4 2 5 5 4 4 5 7 7 7 8 8 8 8 8 9 9 9 11 15 15 13 14 16 15 14 14 13 12 14 17 20 19 19 20 21 20 19 18 17 18 20 21 23 24 23 21 21 24 26 25 23 20 18 17 16 16 21 26 28 28 27 27 28 29 27 26 27 29 29 29 28 25 23 21 22 23
7 7 6 7 9 9 7 8 10 9 7 6 6 5 4 4 7 9 8 7 9 10 10 9 8 8 8 8 9 12 14 14 13 13 12 11 12 13 13 14 15 16 16 16 16 17 17 16 14 15 18 19 20 22 21 20 18 18 20 22 22 20 17 16 16 16 15 16 20 25 28 29 28 30 31 30 28 28 29 29 30 29 26 24 23 22 23
7 6 5 7 8 7 6 8 8 6 6 7 7 5 4 7 11 14 14 12 11 11 11 10 8 8 9 9 10 10 12 13 11 11 11 11 10 12 12 11 11 11 11 11 11 11 13 14 14 15 16 18 20 21 21 20 19 19 20 20 17 14 14 15 17 17 17 16 19 24 29 30 30 32 33 31 29 29 29 29 29 28 26 26 25 24 23
7 9 7 5 4 4 5 7 6 6 9 10 9 8 9 12 13 14 16 15 13 12 11 11 10 9 9 8 8 8 9 9 8 8 10 12 12 12 11 10 10 9 8 8 7 8 9 11 12 14 16 18 20 20 19 19 19 19 19 17 14 12 13 14 16 18 17 17 19 23 25 26 27 30 31 29 29 30 30 28 27 26 26 25 24 23 22
5 8 7 5 3 3 4 5 5 9 13 12 10 11 12 13 12 11 12 12 13 13 12 10 8 8 8 7 6 6 7 7 7 7 9 11 11 11 10 10 10 10 9 7 7 6 8 9 11 13 15 17 17 15 14 15 16 17 18 16 13 13 14 14 15 16 16 16 19 22 23 24 26 28 29 28 29 30 29 26 25 24 23 22 20 18 18
6 8 8 6 3 2 3 3 4 8 11 11 10 12 13 12 12 12 11 11 12 13 12 10 8 6 6 7 6 6 6 7 7 7 7 7 8 8 8 8 8 8 8 8 6 5 7 7 9 11 12 12 11 10 11 12 14 17 18 16 14 14 15 15 15 16 16 15 17 19 23 26 28 28 28 28 28 28 26 24 22 21 20 18 16 14 14
11 13 9 4 2 2 2 3 4 7 11 11 10 11 13 13 13 13 11 10 11 12 11 10 9 7 6 8 9 9 8 8 8 7 5 4 5 6 5 5 5 5 7 8 6 5 5 5 6 8 8 7 8 9 10 11 14 16 16 15 13 13 15 16 17 17 16 16 16 17 20 24 26 26 26 26 25 24 24 23 21 19 18 16 13 13 13
15 18 13 8 6 4 3 4 5 5 8 8 6 7 9 10 11 11 10 8 9 10 10 9 8 7 8 9 10 10 11 10 9 8 6 4 4 5 4 3 3 4 5 6 6 5 4 4 3 3 3 4 6 8 9 11 14 14 13 12 10 10 13 17 19 19 17 16 15 16 18 20 22 23 24 24 24 24 24 23 21 20 18 16 14 14 15
12 14 13 12 10 7 5 5 5 5 5 5 5 4 6 7 9 9 8 6 6 8 9 9 7 6 6 7 7 6 9 10 9 8 7 5 3 2 2 3 3 3 3 3 3 4 5 4 3 2 1 1 2 3 6 11 13 12 11 10 8 5 6 12 17 19 17 15 14 15 17 19 20 21 22 23 25 25 25 23 22 22 20 17 16 17 19
13 12 11 12 12 10 8 6 4 5 5 5 5 4 4 6 6 7 7 7 6 6 7 8 7 4 3 5 5 5 6 8 9 8 8 8 6 3 2 2 2 2 1 1 0 2 5 6 6 6 5 4 4 6 8 11 13 12 11 10 8 4 2 5 11 16 17 15 14 15 16 18 19 21 23 23 23 23 23 22 22 22 22 21 19 19 20
15 15 15 12 9 9 9 6 4 6 6 5 4 3 3 4 4 4 5 6 5 5 5 7 8 8 8 8 8 7 5 6 6 5 6 9 8 4 2 3 3 1 1 1 1 0 3 5 7 9 8 7 7 9 11 11 12 13 13 12 10 6 4 4 7 12 15 16 15 15 15 16 17 20 23 24 23 22 22 20 19 20 22 22 22 22 23
17 17 16 10 4 5 9 8 5 5 6 6 4 3 4 4 4 5 7 6 5 4 4 5 6 8 9 9 10 11 9 6 6 5 5 6 6 4 2 3 4 3 2 0 0 1 2 3 4 7 9 10 10 11 13 12 11 12 13 13 12 11 8 6 6 9 14 16 17 16 16 16 16 18 20 23 25 26 24 21 18 18 20 21 22 23 23
20 17 14 9 4 5 9 10 6 4 4 6 6 5 5 5 4 6 8 7 5 5 5 6 6 6 6 6 7 9 8 5 5 4 5 5 5 5 4 5 5 4 2 2 1 2 2 2 1 4 8 10 11 12 15 16 14 13 12 11 11 11 10 7 6 7 11 14 16 16 16 16 16 16 17 20 23 25 25 22 19 19 20 21 22 22 22
22 17 10 6 3 2 4 7 7 5 3 4 4 3 4 4 5 7 7 7 6 6 7 6 6 7 7 6 5 6 6 5 4 2 2 4 6 6 4 4 4 3 2 2 2 2 3 3 3 3 7 12 13 13 14 15 14 13 11 10 9 10 9 6 5 6 8 12 14 15 15 15 15 15 16 17 18 20 23 24 23 22 22 23 23 22 23
23 18 12 7 4 3 3 5 6 4 3 3 3 2 2 3 5 7 7 7 8 9 9 7 5 6 8 8 7 8 8 8 6 4 3 5 7 6 3 3 3 2 1 2 4 5 5 3 3 4 8 11 12 13 12 11 11 12 11 10 9 10 10 8 6 6 7 9 11 12 13 14 14 14 14 15 16 18 19 21 23 23 24 24 23 23 23
20 18 14 9 4 2 4 6 6 4 4 4 4 3 4 4 5 6 7 6 6 5 6 7 7 6 7 9 9 8 8 7 6 5 4 4 4 4 4 5 4 2 1 2 3 4 2 1 1 4 8 10 11 11 9 9 10 13 14 14 12 11 10 10 10 10 9 9 9 9 10 12 13 14 14 14 16 18 19 20 21 22 23 23 24 24 24
18 17 13 10 6 4 5 7 10 9 7 8 8 8 8 8 8 8 7 6 4 3 4 7 8 8 8 9 9 8 7 6 7 7 7 6 6 5 5 5 4 1 2 2 2 2 3 2 2 1 4 7 9 9 8 7 9 13 17 18 16 12 10 11 12 12 11 11 11 11 12 14 15 16 16 16 17 19 20 21 21 22 22 24 24 24 24
17 16 13 12 11 9 7 7 8 9 11 12 13 13 11 10 11 11 10 9 7 6 7 8 7 7 7 8 8 8 9 9 9 9 9 9 9 8 6 4 1 2 3 2 3 3 3 3 2 1 1 2 4 5 5 4 5 10 16 18 14 9 7 10 13 14 14 13 13 13 13 14 15 16 18 19 19 19 20 21 23 23 23 23 22 21 21
14 15 14 14 14 14 12 7 3 4 10 16 18 17 12 10 11 11 11 9 7 6 8 9 8 8 7 8 8 9 9 8 9 10 11 11 11 11 10 6 2 3 2 0 1 1 1 1 3 3 3 2 3 4 4 3 2 6 10 12 9 5 3 4 6 8 8 8 8 9 9 7 6 7 9 10 11 12 14 17 21 24 23 22 20 19 18
11 12 14 13 12 13 14 12 9 9 13 17 19 17 13 9 8 8 8 8 8 9 10 11 11 10 9 10 11 12 10 7 7 9 12 13 13 14 13 9 4 3 3 4 4 3 2 1 1 3 6 8 9 9 8 8 7 4 5 6 5 5 4 2 3 5 5 4 5 6 6 5 3 3 3 4 4 6 7 9 13 18 21 22 22 21 20
11 10 10 10 8 8 11 15 17 17 17 18 18 16 12 9 9 10 11 12 13 14 13 12 11 10 9 10 12 14 13 11 10 10 10 11 12 13 12 11 9 9 11 12 11 9 6 4 6 11 14 14 11 8 7 7 7 5 4 5 6 6 5 4 5 6 7 7 6 6 7 7 6 5 6 6 6 7 8 9 9 11 14 17 19 20 20
15 12 11 12 12 11 13 18 21 20 18 18 19 17 12 9 10 13 14 14 14 14 13 11 10 10 10 10 10 12 13 13 12 10 9 9 9 9 9 9 10 11 13 14 14 13 12 9 10 14 15 14 12 10 8 8 8 7 7 6 7 6 4 3 3 5 7 8 7 7 8 9 8 8 8 8 8 9 10 10 11 12 13 15 16 17 18
21 20 19 20 19 18 18 20 22 22 19 18 18 18 16 14 14 14 13 12 13 13 11 10 10 10 10 10 10 10 10 11 11 10 8 8 8 7 6 5 5 6 8 10 12 13 12 11 10 12 11 11 11 10 6 3 4 5 6 5 5 5 4 3 3 4 5 6 6 6 8 9 9 10 11 11 11 11 11 10 10 11 13 14 14 14 15
23 22 22 21 20 20 20 20 21 22 21 19 17 16 16 15 15 14 13 12 11 10 9 8 7 7 7 8 8 8 8 8 8 8 8 8 7 6 5 4 4 3 3 5 9 11 12 11 10 9 7 8 8 8 6 3 2 2 2 2 2 2 3 3 3 3 3 3 4 6 7 7 8 9 10 11 12 12 12 12 11 11 12 12 13 14 14
Wind_Direction
267 271 275 279 288 286 267 233 219 230 235 241 248 244 241 219 203 240 269 293 282 281 319 346 353 354 341 318 80 95 92 105 144 149 146 149 156 161 166 171 175 180 183 184 186 187 188 188 190 193 195 196 196 197 197 198 199 200 201 202 202 201 202 204 206 205 204 204 204 204 204 206 207 207 205 201 202 210 217 220 223 225 228 227 218 212 212
282 279 277 277 279 277 267 238 217 223 231 236 246 255 259 260 252 249 266 283 285 298 299 309 10 8 349 334 25 93 94 90 104 134 148 154 159 165 169 173 179 182 184 185 186 186 187 188 191 193 195 196 196 196 196 196 198 200 202 201 200 200 200 202 204 203 202 202 203 203 204 206 209 209 206 204 206 213 219 222 222 222 223 222 218 214 211
274 262 258 258 262 270 281 263 227 219 225 232 238 248 255 259 261 255 254 275 285 290 271 282 26 11 357 349 345 78 111 109 96 99 133 153 160 168 172 175 179 182 182 183 184 185 187 190 192 193 195 197 197 197 196 196 198 201 203 202 201 200 200 201 201 201 202 204 205 205 206 208 211 211 208 207 207 211 219 222 221 220 221 219 216 213 212
266 273 301 313 314 315 321 306 260 224 219 229 232 234 236 239 246 250 252 263 263 264 273 297 20 12 359 342 321 335 109 136 134 125 129 139 146 161 171 175 178 179 179 181 184 188 190 191 192 193 194 196 197 197 197 197 199 202 203 202 202 202 201 201 201 201 204 206 206 206 207 210 212 210 208 208 206 210 219 221 219 218 217 215 213 211 212
291 332 358 359 354 345 317 291 278 246 228 229 232 237 236 229 222 216 233 232 200 206 242 261 349 0 360 319 299 314 2 125 156 158 164 159 143 150 168 176 179 179 181 184 188 190 191 191 193 195 195 196 198 198 197 197 199 202 204 203 202 202 201 200 200 202 204 205 206 208 210 213 211 207 206 206 207 211 218 219 217 216 214 213 212 212 213
296 341 8 12 359 325 267 276 305 302 275 249 238 239 241 235 212 186 205 217 197 191 187 169 161 355 329 294 289 308 345 290 188 177 178 178 173 174 182 188 190 188 188 190 191 191 192 194 196 197 196 197 198 198 198 199 201 203 203 201 200 201 202 201 200 201 203 205 207 211 213 211 208 205 205 206 209 215 218 217 215 215 215 214 214 213 214
203 23 32 16 282 256 274 292 307 307 300 283 263 251 246 243 232 225 233 236 235 232 193 162 165 167 261 273 273 285 300 244 207 184 172 174 178 184 190 197 200 197 194 193 192 192 194 196 197 196 196 198 199 198 199 201 201 203 203 201 198 199 202 202 201 201 204 207 211 214 212 207 204 204 206 208 214 218 217 216 217 217 217 217 216 214 214
96 59 72 218 255 284 290 297 314 327 333 332 322 294 265 255 239 231 243 239 232 244 209 171 181 188 200 235 250 258 272 254 206 184 174 177 182 187 193 199 202 201 199 197 195 195 196 197 196 195 195 197 198 196 198 201 201 202 203 202 201 200 201 202 201 203 205 208 212 213 209 205 203 204 207 211 215 217 215 215 217 217 218 218 217 216 215
111 132 244 247 284 305 298 299 334 4 349 333 324 304 275 272 252 219 224 229 225 231 227 213 214 210 205 210 229 243 260 252 198 184 181 184 189 195 199 202 204 203 204 204 201 198 198 197 196 195 195 196 196 195 196 198 200 200 201 200 199 199 202 204 204 205 206 206 208 210 208 206 204 204 208 212 214 215 215 217 219 219 218 218 218 218 218
106 135 270 285 311 309 283 279 297 328 326 307 290 275 278 288 268 232 213 212 211 208 224 247 254 241 229 242 235 238 255 246 195 188 191 194 194 198 202 205 206 205 205 204 202 200 199 195 195 195 195 195 196 196 196 197 198 200 201 201 199 198 200 203 203 204 205 205 207 209 208 206 205 206 210 214 215 216 219 222 223 222 221 219 220 220 221
125 147 215 249 256 245 250 264 286 312 304 294 284 276 290 305 303 295 279 229 212 193 195 231 248 249 248 259 251 252 271 255 216 204 207 209 205 205 206 206 207 207 204 201 200 200 197 193 193 196 195 195 195 195 196 197 197 198 199 200 199 199 199 200 200 202 203 204 208 211 210 207 207 208 212 214 216 218 221 224 224 222 221 220 220 220 221
213 208 218 232 239 240 249 256 244 255 278 292 312 230 266 313 329 328 331 322 268 217 201 206 218 218 224 242 255 268 280 260 242 228 228 231 221 211 208 211 211 206 200 196 195 195 194 191 192 194 195 195 195 195 195 195 197 200 202 200 198 198 200 200 200 202 203 205 209 213 213 209 208 209 212 213 215 216 219 222 222 220 219 220 220 221 221
239 234 243 251 253 248 242 249 259 265 284 318 97 203 273 317 324 326 327 327 332 265 204 204 207 214 227 242 250 254 264 258 248 240 237 233 220 205 201 205 208 203 197 194 193 191 191 190 190 192 194 194 193 194 195 194 193 197 202 202 201 200 200 201 201 203 206 209 212 214 213 210 208 210 212 213 213 215 219 220 219 218 219 221 221 221 220
230 220 236 269 281 260 227 234 300 331 342 263 221 266 320 328 332 339 336 325 323 329 212 202 214 221 228 240 247 245 246 247 244 232 209 196 189 188 190 195 200 199 195 191 188 186 187 189 191 192 194 193 191 192 196 195 194 194 196 199 201 201 201 202 204 206 210 213 213 210 210 211 210 211 212 214 216 218 219 220 220 220 221 223 221 217 215
209 221 263 299 282 249 217 214 10 34 131 220 278 309 333 341 350 351 340 328 323 324 316 243 224 229 227 222 224 227 225 225 226 220 197 184 180 182 186 191 196 196 189 184 183 183 185 188 191 192 192 191 190 192 195 197 198 199 198 197 197 199 200 202 205 208 209 209 209 207 207 210 211 211 212 214 216 218 219 219 219 218 219 221 219 213 213
270 230 233 235 242 250 190 134 83 270 242 287 334 321 318 348 2 357 339 332 333 331 325 306 246 220 211 197 194 201 209 214 218 217 205 197 194 191 191 193 192 189 184 179 178 181 183 185 188 190 191 190 190 192 195 196 197 199 200 198 197 198 200 201 203 204 203 202 204 208 209 208 208 210 212 214 216 217 217 217 216 215 217 219 216 214 215
272 226 265 286 352 13 16 70 127 227 271 341 2 322 300 337 8 2 341 337 344 344 336 321 256 181 174 180 182 183 197 211 211 204 182 184 190 189 188 186 182 180 178 175 174 176 180 184 186 187 190 192 190 190 192 195 197 197 195 194 194 194 196 199 200 198 196 197 203 210 211 209 207 209 212 214 215 215 215 214 215 217 219 219 218 216 216
279 312 0 353 10 27 13 349 334 49 8 10 10 333 313 335 2 0 358 358 353 353 351 338 315 172 160 168 177 177 182 187 191 190 160 148 153 158 165 171 174 176 176 174 175 176 178 182 185 186 191 196 193 190 190 192 195 195 193 194 195 195 195 195 194 193 194 199 206 211 213 212 211 211 212 213 215 215 214 215 218 220 220 220 219 218 217
302 309 0 350 350 46 32 338 311 352 22 10 3 340 326 342 2 4 17 22 1 1 13 354 332 315 154 155 164 175 190 189 178 176 161 147 145 154 163 166 169 174 174 173 174 176 177 181 184 186 190 194 193 192 190 190 192 194 197 200 200 198 196 195 194 196 200 206 210 212 212 211 211 212 213 214 215 216 216 216 218 220 222 222 220 219 218
339 259 325 333 332 5 28 309 295 324 18 17 2 326 323 1 27 23 24 27 13 13 21 356 343 1 43 68 143 170 190 192 168 165 169 167 165 171 178 177 169 167 169 170 172 175 177 181 184 186 186 185 187 191 191 193 196 197 199 202 202 199 198 198 198 201 207 212 213 210 209 210 212 214 215 216 218 221 223 224 224 224 224 224 222 220 220
317 270 305 329 340 348 304 280 302 339 12 15 349 309 333 27 45 40 34 32 26 25 18 345 1 27 28 18 20 72 197 195 176 165 166 172 174 173 178 182 176 170 172 174 174 174 174 176 180 183 182 182 188 192 191 193 198 199 198 199 199 198 198 199 200 204 209 213 213 210 209 212 214 216 217 218 221 225 228 231 233 235 234 231 226 224 228
292 239 254 296 332 322 276 285 315 358 18 19 353 331 352 26 45 47 49 46 37 35 29 19 32 41 31 21 21 21 38 145 161 160 155 159 166 168 173 178 175 173 179 180 176 175 173 171 173 177 181 184 189 191 191 193 198 201 199 197 196 197 198 200 203 208 212 214 213 213 213 213 212 213 214 216 220 225 228 229 232 236 240 238 234 235 240
238 245 253 258 255 266 282 292 307 0 28 25 20 3 359 13 35 42 47 49 39 29 24 26 35 44 42 35 26 14 19 87 129 142 143 146 156 163 172 179 172 168 176 182 179 179 179 176 175 177 181 184 185 187 192 194 196 200 201 200 200 201 201 203 209 215 216 214 213 212 213 213 211 209 208 210 214 220 226 229 230 232 233 232 233 239 243
242 270 288 285 271 274 290 299 304 339 26 9 13 19 9 12 37 47 49 49 42 34 30 29 31 41 51 52 40 19 10 50 105 121 128 138 152 158 170 181 174 168 176 183 180 177 179 181 182 184 186 188 187 190 194 195 195 198 201 203 204 204 203 208 216 217 213 211 211 211 211 211 210 209 207 207 208 212 220 225 229 231 231 227 227 233 237
275 289 302 298 287 284 286 283 279 305 26 325 324 6 6 8 51 63 60 55 48 43 43 40 34 37 49 57 56 49 51 65 79 98 116 134 148 150 160 174 172 169 179 184 179 174 175 178 179 183 186 187 187 191 198 199 198 199 200 203 206 205 206 212 219 218 213 210 210 210 210 209 209 210 211 210 210 211 215 218 221 226 229 229 229 231 231
313 301 300 299 291 290 290 262 231 194 145 185 306 349 351 359 66 67 62 66 65 54 50 50 47 51 61 70 75 73 67 72 81 95 112 124 133 136 138 149 159 170 182 184 177 172 174 176 177 181 184 185 186 192 198 199 199 203 207 210 212 215 214 214 215 218 218 216 213 211 211 210 209 210 212 214 215 217 216 212 210 214 219 222 223 224 224
341 353 334 316 308 324 360 359 278 253 154 145 229 313 326 0 59 61 60 70 76 72 67 61 56 59 66 70 76 76 67 71 80 87 93 101 109 117 116 125 166 183 184 178 173 172 175 177 180 181 181 183 190 196 198 196 198 205 209 210 212 215 218 217 217 219 223 224 221 215 211 207 205 206 211 216 221 223 222 218 213 212 212 212 213 215 217
334 3 358 334 319 323 336 338 315 312 125 142 273 323 354 25 49 62 65 66 66 70 75 70 60 59 60 63 75 84 85 84 84 83 83 87 94 111 137 161 180 186 181 171 167 169 171 175 180 183 181 182 189 196 198 197 197 201 205 206 207 208 212 216 218 221 226 229 224 216 209 206 206 207 210 216 223 225 223 220 218 216 214 212 210 210 212
335 352 357 350 334 325 322 326 330 335 348 333 323 336 349 359 24 44 47 47 45 45 52 59 58 55 54 58 70 80 87 93 94 93 97 103 110 120 136 153 168 178 178 172 168 166 167 170 176 179 180 181 183 188 193 196 196 198 202 205 206 207 209 212 214 216 224 228 223 214 209 209 212 212 212 216 222 224 221 218 219 219 217 215 213 212 211
356 354 347 341 333 326 330 345 343 340 347 353 346 342 345 9 41 48 42 35 36 39 46 58 61 50 44 50 60 71 84 92 91 87 92 108 125 133 137 145 156 163 165 164 166 169 172 175 178 179 182 185 188 190 194 198 202 205 207 208 210 214 216 216 213 211 213 218 217 212 208 208 212 215 215 216 219 222 221 220 220 220 219 218 220 221 218
342 333 332 335 333 334 358 7 356 342 354 9 7 5 37 65 62 55 52 51 48 44 43 44 40 32 34 46 53 62 81 91 87 79 76 84 109 132 141 147 154 157 157 156 160 171 181 186 190 192 196 199 201 200 201 204 206 205 203 203 208 215 221 223 220 214 207 206 208 209 208 209 212 214 216 217 219 220 219 219 220 221 222 223 225 226 224
320 315 319 334 353 18 18 9 11 14 12 9 6 19 62 86 78 59 53 51 45 39 34 30 26 17 19 36 45 49 68 81 80 78 79 83 96 114 125 132 143 154 161 161 161 174 189 196 198 201 205 206 202 200 201 202 202 200 197 194 196 201 207 212 214 212 208 207 208 210 212 214 216 216 217 221 223 221 219 218 220 222 223 225 228 230 229
305 304 318 340 12 32 2 357 26 31 18 11 16 37 66 88 83 61 49 41 33 27 21 19 19 12 12 29 40 36 51 68 70 72 82 89 98 107 108 112 125 136 140 137 141 164 185 195 197 198 202 205 203 201 203 208 210 207 200 195 199 206 206 202 201 204 208 211 212 213 215 215 215 216 218 222 224 222 220 220 220 220 221 225 229 231 231
307 296 316 343 354 355 3 14 46 43 32 25 31 48 67 78 68 55 49 39 33 26 15 17 32 35 30 42 47 36 45 64 67 67 75 83 90 97 103 109 117 128 133 131 137 163 179 187 190 188 190 199 208 212 215 220 222 217 208 204 209 214 210 205 203 205 209 213 216 218 219 217 215 216 219 222 222 221 220 219 218 217 220 223 226 231 236
328 314 315 348 16 7 33 31 30 48 52 46 41 54 69 70 59 55 56 47 36 25 16 26 50 61 55 53 54 52 55 60 63 68 71 69 74 83 92 97 97 113 136 138 139 161 179 179 178 179 184 200 219 228 230 223 217 213 211 212 216 215 212 211 212 210 211 214 215 218 220 219 218 219 220 220 220 218 217 216 217 219 221 222 223 231 241
336 327 327 349 11 15 23 12 6 33 53 52 49 62 71 66 58 59 62 57 48 41 35 34 41 48 54 58 58 58 58 56 56 59 54 43 60 76 69 51 63 96 127 131 129 154 181 173 160 179 210 229 233 237 232 216 207 204 201 202 208 212 212 215 214 210 208 212 217 221 222 221 220 221 220 217 216 216 216 216 217 219 222 222 221 228 240
351 337 329 334 345 349 346 347 354 12 38 51 56 59 68 72 69 64 63 64 59 50 43 36 24 17 27 36 39 54 68 63 54 52 48 32 34 74 56 21 36 73 97 112 133 169 183 172 161 176 186 161 178 187 188 194 201 199 187 182 187 198 210 214 214 211 209 210 216 221 221 217 217 219 219 216 215 215 214 211 209 211 216 222 227 234 241
8 9 355 336 330 331 333 341 1 11 27 52 58 54 75 84 74 64 71 82 73 47 38 43 47 46 47 43 37 51 73 62 49 50 51 38 28 46 99 88 78 88 76 20 4 193 190 191 194 192 175 151 141 144 159 186 204 203 192 189 196 204 222 225 219 214 213 215 218 220 220 218 216 215 213 211 209 208 205 204 205 207 210 217 226 234 237
5 11 5 346 327 325 328 337 9 15 16 33 47 49 70 75 70 84 101 96 72 42 32 41 55 71 89 88 67 50 42 35 27 33 45 39 32 38 97 99 96 138 216 306 350 268 192 200 202 196 187 185 180 169 167 183 203 209 207 208 211 219 250 268 238 218 215 219 222 221 220 221 219 214 210 207 205 203 202 203 206 207 208 213 221 228 232
356 357 357 356 2 347 338 343 14 32 24 33 51 73 72 63 77 111 112 97 74 51 26 14 33 60 77 74 49 31 26 28 22 7 359 8 16 19 57 111 122 139 165 187 65 121 150 183 202 197 193 195 197 193 191 194 205 215 214 208 207 217 234 257 255 232 222 222 225 226 225 225 225 221 214 209 208 209 208 206 206 209 212 217 224 230 233
358 354 350 351 5 358 351 359 20 35 28 38 60 82 81 71 90 117 111 97 78 53 26 9 17 46 66 57 28 19 24 35 31 6 336 341 12 43 86 117 122 128 151 171 153 136 148 166 202 209 204 199 195 197 201 204 210 218 218 209 208 220 231 247 267 253 232 226 228 231 231 230 231 228 221 214 212 213 213 212 213 218 222 226 232 237 237
4 358 352 356 29 48 16 5 4 7 24 41 50 65 74 75 89 103 100 85 71 64 60 56 54 57 60 58 49 47 44 34 22 17 16 34 51 71 94 99 91 95 150 191 195 214 229 239 253 239 216 206 198 196 199 203 207 213 214 208 208 215 220 237 274 269 241 230 230 232 233 234 233 229 225 221 218 217 215 212 215 221 227 231 236 238 237
11 6 3 9 26 43 27 8 1 21 67 58 33 41 82 91 91 96 96 88 79 74 71 72 73 63 53 53 64 70 61 49 48 70 85 73 75 83 85 60 49 38 286 251 231 223 225 238 246 228 213 207 204 204 206 208 208 204 197 194 205 216 218 225 241 246 237 230 228 226 229 232 231 229 227 225 222 220 218 216 218 223 228 231 234 234 235
17 14 15 20 20 18 32 25 14 24 65 66 46 56 83 91 97 105 104 92 78 61 47 51 60 61 51 49 48 43 38 44 59 66 52 47 65 68 42 24 26 28 291 262 244 227 206 105 105 207 210 208 206 205 209 218 219 208 195 190 196 207 214 222 230 236 238 237 232 226 222 221 222 227 231 229 224 223 225 227 229 231 231 230 230 231 234
19 20 25 38 46 49 53 40 29 38 70 86 79 75 81 89 97 100 86 64 52 53 64 69 67 57 48 45 40 33 35 57 74 70 56 48 50 41 18 12 26 76 186 177 141 152 159 131 100 173 208 207 204 203 206 219 227 220 210 202 198 196 203 216 222 223 222 221 222 226 228 226 224 226 229 230 228 227 229 233 237 238 237 236 235 234 236
17 27 40 57 66 73 79 61 45 59 83 87 78 76 85 96 95 85 70 56 57 74 87 85 73 58 49 44 41 49 65 73 68 58 51 50 49 43 27 18 61 164 183 162 119 120 158 188 189 183 202 214 215 215 217 233 243 232 222 215 209 204 211 219 219 217 218 222 227 231 235 235 235 235 236 236 236 235 235 237 240 243 246 246 244 240 237
11 25 40 56 72 88 100 108 108 96 89 79 71 69 81 102 108 98 87 82 82 83 85 84 79 72 68 60 52 56 66 68 60 55 52 50 52 51 44 41 87 150 161 133 13 1 325 242 229 237 236 209 165 149 143 140 176 215 217 212 199 168 145 177 197 200 208 225 236 235 232 232 236 240 241 242 245 247 245 242 240 240 243 245 245 243 241
12 21 29 37 55 79 94 105 115 110 93 82 75 72 76 97 120 120 111 107 105 99 97 98 97 92 88 83 77 72 68 69 75 69 56 45 44 47 45 45 61 97 67 43 35 28 32 67 144 156 148 139 128 119 115 113 115 140 193 201 178 145 130 142 182 192 201 220 232 230 226 230 241 251 257 267 278 283 278 262 244 235 234 238 242 246 246
32 30 30 31 37 49 62 69 76 85 91 92 88 82 81 95 114 115 106 101 99 96 96 103 111 110 103 96 89 82 80 88 102 98 72 49 43 47 52 59 70 73 65 59 57 56 57 78 118 129 128 121 110 104 117 126 119 117 151 178 169 162 174 202 214 215 221 229 232 229 227 230 235 244 256 269 276 278 279 277 263 242 232 232 238 243 244
51 52 50 50 51 51 49 50 55 66 81 90 89 85 83 91 103 105 102 103 105 103 99 100 107 112 111 108 100 91 88 92 100 102 92 74 65 63 65 73 78 76 68 63 62 62 62 76 114 128 123 105 89 93 123 151 147 130 127 141 154 159 168 182 185 192 203 210 214 220 225 227 226 227 234 246 257 261 264 268 267 257 244 237 239 247 252
53 56 57 57 57 58 58 56 55 60 71 81 86 88 88 87 90 95 99 107 115 118 115 111 108 105 106 111 111 104 98 97 97 97 97 95 91 88 87 89 92 91 85 79 78 76 74 83 109 123 116 95 86 91 102 137 161 146 137 144 159 168 175 184 185 189 198 202 203 206 212 220 228 232 234 238 248 256 260 261 260 253 244 242 249 260 266
51 53 56 59 59 60 62 62 60 60 62 65 69 74 79 83 88 90 89 92 102 109 113 116 111 99 95 105 112 111 109 108 105 101 102 104 103 106 111 101 90 101 125 116 105 100 96 97 108 118 109 90 90 98 97 85 97 144 158 164 176 198 221 226 214 208 215 219 217 218 219 223 233 242 244 243 249 257 262 261 256 252 250 255 263 267 263